Tracking 28790 objects as of 19-Apr-2024
HD Live streaming from Space Station
objects crossing your sky now

CZ-4 DEB

Track CZ-4 DEB now!
10-day predictions


NORAD ID: 26441
Int'l Code: 1999-057KN
Perigee: 600.9 km
Apogee: 666.2 km
Inclination: 98.2 °
Period: 97.2 minutes
Semi major axis: 7004 km
RCS: 0.0092 m2 (small)
Launch date: October 14, 1999
Source: People's Republic of China (PRC)
Launch site: Taiyaun Space Center, China (TSC)

Note: This is SATELLITE DEBRIS
Your satellite tracking list
Your tracking list is empty




NASA's NSSDC Master Catalog

Two Line Element Set (TLE):
1 26441U 99057KN  24109.79309748  .00030502  00000-0  38633-2 0  9995
2 26441  98.2011 158.1570 0046664 113.8728 246.7384 14.80925744272530
Source of the keplerian elements: AFSPC